Time,TemperatureF,DewpointF,PressureIn,WindDirection,WindDirectionDegrees,WindSpeedMPH,WindSpeedGustMPH,Humidity,HourlyPrecipIn,Conditions,Clouds,dailyrainin,SoftwareType,DateUTC
2013-01-27 00:03:00,12.0,6.0,30.22,North,360,2.0,7.0,75,0.00,,,0.00,,2013-01-27 05:03:00,
2013-01-27 00:12:00,12.0,6.0,30.22,North,360,2.0,7.0,75,0.00,,,0.00,,2013-01-27 05:12:00,
2013-01-27 00:22:00,12.0,6.0,30.23,NE,48,2.0,13.0,76,0.00,,,0.00,,2013-01-27 05:22:00,
2013-01-27 00:32:00,11.0,5.0,30.23,North,9,3.0,15.0,76,0.00,,,0.00,,2013-01-27 05:32:00,
2013-01-27 00:41:00,11.0,5.0,30.23,North,9,3.0,15.0,76,0.00,,,0.00,,2013-01-27 05:41:00,
2013-01-27 00:52:00,11.0,5.0,30.23,ENE,65,4.0,7.0,76,0.00,,,0.00,,2013-01-27 05:52:00,
2013-01-27 01:02:00,11.0,4.0,30.24,NNW,339,7.0,16.0,73,0.00,,,0.00,,2013-01-27 06:02:00,
2013-01-27 01:11:00,11.0,4.0,30.24,NNW,339,7.0,16.0,73,0.00,,,0.00,,2013-01-27 06:11:00,
2013-01-27 01:21:00,11.0,4.0,30.24,NE,37,8.0,15.0,72,0.00,,,0.00,,2013-01-27 06:21:00,
2013-01-27 01:32:00,11.0,3.0,30.25,East,95,2.0,10.0,71,0.00,,,0.00,,2013-01-27 06:32:00,
2013-01-27 01:42:00,11.0,3.0,30.25,East,95,2.0,10.0,71,0.00,,,0.00,,2013-01-27 06:42:00,
2013-01-27 01:52:00,11.0,3.0,30.25,ENE,65,1.0,8.0,70,0.00,,,0.00,,2013-01-27 06:52:00,
2013-01-27 02:01:00,10.0,2.0,30.26,NNE,16,0.0,6.0,70,0.00,,,0.00,,2013-01-27 07:01:00,
2013-01-27 02:14:00,10.0,2.0,30.26,NNE,16,0.0,6.0,70,0.00,,,0.00,,2013-01-27 07:14:00,
2013-01-27 02:21:00,10.0,2.0,30.27,NE,46,2.0,11.0,70,0.00,,,0.00,,2013-01-27 07:21:00,
2013-01-27 02:32:00,9.0,1.0,30.28,SSW,202,0.0,5.0,70,0.00,,,0.00,,2013-01-27 07:32:00,
2013-01-27 02:42:00,9.0,1.0,30.28,SSW,202,0.0,5.0,70,0.00,,,0.00,,2013-01-27 07:42:00,
2013-01-27 02:52:00,9.0,1.0,30.28,ENE,69,0.0,5.0,70,0.00,,,0.00,,2013-01-27 07:52:00,
2013-01-27 03:01:00,9.0,2.0,30.29,NNE,28,0.0,6.0,71,0.00,,,0.00,,2013-01-27 08:01:00,
2013-01-27 03:11:00,9.0,2.0,30.29,NNE,28,0.0,6.0,71,0.00,,,0.00,,2013-01-27 08:11:00,
2013-01-27 03:22:00,8.0,1.0,30.29,SSE,164,0.0,5.0,71,0.00,,,0.00,,2013-01-27 08:22:00,
2013-01-27 03:32:00,8.0,1.0,30.29,SE,136,0.0,7.0,71,0.00,,,0.00,,2013-01-27 08:32:00,
2013-01-27 03:42:00,8.0,1.0,30.29,SE,136,0.0,7.0,71,0.00,,,0.00,,2013-01-27 08:42:00,
2013-01-27 03:52:00,8.0,1.0,30.29,SE,130,0.0,1.0,72,0.00,,,0.00,,2013-01-27 08:52:00,
2013-01-27 04:02:00,7.0,0.0,30.29,East,91,0.0,7.0,72,0.00,,,0.00,,2013-01-27 09:02:00,
2013-01-27 04:11:00,7.0,0.0,30.29,East,91,0.0,7.0,72,0.00,,,0.00,,2013-01-27 09:11:00,
2013-01-27 04:21:00,7.0,0.0,30.29,SSW,194,1.0,2.0,72,0.00,,,0.00,,2013-01-27 09:21:00,
2013-01-27 04:32:00,6.0,-1.0,30.29,SW,221,1.0,4.0,72,0.00,,,0.00,,2013-01-27 09:32:00,
2013-01-27 04:41:00,6.0,-1.0,30.29,SW,221,1.0,4.0,72,0.00,,,0.00,,2013-01-27 09:41:00,
2013-01-27 04:52:00,5.0,-2.0,30.30,South,183,0.0,5.0,73,0.00,,,0.00,,2013-01-27 09:52:00,
2013-01-27 05:01:00,5.0,-1.0,30.31,North,10,0.0,2.0,74,0.00,,,0.00,,2013-01-27 10:01:00,
2013-01-27 05:11:00,4.0,-2.0,30.31,North,11,0.0,2.0,75,0.00,,,0.00,,2013-01-27 10:11:00,
2013-01-27 05:21:00,4.0,-2.0,30.31,North,11,0.0,2.0,75,0.00,,,0.00,,2013-01-27 10:21:00,
2013-01-27 05:32:00,3.0,-3.0,30.31,North,10,0.0,1.0,77,0.00,,,0.00,,2013-01-27 10:32:00,
2013-01-27 05:42:00,3.0,-3.0,30.31,North,10,0.0,1.0,77,0.00,,,0.00,,2013-01-27 10:42:00,
2013-01-27 05:52:00,2.0,-3.0,30.32,North,10,0.0,2.0,78,0.00,,,0.00,,2013-01-27 10:52:00,
2013-01-27 06:01:00,2.0,-3.0,30.32,North,10,0.0,1.0,79,0.00,,,0.00,,2013-01-27 11:01:00,
2013-01-27 06:11:00,1.0,-4.0,30.33,North,11,0.0,2.0,79,0.00,,,0.00,,2013-01-27 11:11:00,
2013-01-27 06:21:00,1.0,-4.0,30.33,North,11,0.0,2.0,79,0.00,,,0.00,,2013-01-27 11:21:00,
2013-01-27 06:32:00,1.0,-4.0,30.33,North,11,0.0,2.0,80,0.00,,,0.00,,2013-01-27 11:32:00,
2013-01-27 06:42:00,1.0,-4.0,30.33,North,11,0.0,2.0,80,0.00,,,0.00,,2013-01-27 11:42:00,
2013-01-27 06:52:00,1.0,-3.0,30.34,North,11,0.0,5.0,81,0.00,,,0.00,,2013-01-27 11:52:00,
2013-01-27 07:02:00,2.0,-2.0,30.35,North,360,0.0,2.0,81,0.00,,,0.00,,2013-01-27 12:02:00,
2013-01-27 07:12:00,2.0,-2.0,30.35,North,360,0.0,2.0,81,0.00,,,0.00,,2013-01-27 12:12:00,
2013-01-27 07:22:00,1.0,-3.0,30.35,North,9,0.0,0.0,81,0.00,,,0.00,,2013-01-27 12:22:00,
2013-01-27 07:32:00,1.0,-3.0,30.36,NNE,33,0.0,1.0,81,0.00,,,0.00,,2013-01-27 12:32:00,
2013-01-27 07:42:00,1.0,-3.0,30.36,NNE,33,0.0,1.0,81,0.00,,,0.00,,2013-01-27 12:42:00,
2013-01-27 07:52:00,1.0,-3.0,30.36,NW,310,0.0,4.0,81,0.00,,,0.00,,2013-01-27 12:52:00,
2013-01-27 08:02:00,0.0,-4.0,30.37,NW,310,0.0,0.0,81,0.00,,,0.00,,2013-01-27 13:02:00,
2013-01-27 08:11:00,0.0,-4.0,30.37,NW,310,0.0,0.0,81,0.00,,,0.00,,2013-01-27 13:11:00,
2013-01-27 08:22:00,0.0,-4.0,30.37,NW,310,0.0,0.0,82,0.00,,,0.00,,2013-01-27 13:22:00,
2013-01-27 08:32:00,1.0,-3.0,30.38,NW,310,0.0,0.0,83,0.00,,,0.00,,2013-01-27 13:32:00,
2013-01-27 08:42:00,1.0,-3.0,30.38,NW,310,0.0,0.0,83,0.00,,,0.00,,2013-01-27 13:42:00,
2013-01-27 08:52:00,3.0,-1.0,30.38,NNW,330,0.0,1.0,84,0.00,,,0.00,,2013-01-27 13:52:00,
2013-01-27 09:02:00,5.0,1.0,30.38,SSW,210,2.0,5.0,82,0.00,,,0.00,,2013-01-27 14:02:00,
2013-01-27 09:12:00,5.0,1.0,30.38,SSW,210,2.0,5.0,82,0.00,,,0.00,,2013-01-27 14:12:00,
2013-01-27 09:22:00,9.0,1.0,30.39,West,263,2.0,9.0,68,0.00,,,0.00,,2013-01-27 14:22:00,
2013-01-27 09:32:00,11.0,1.0,30.40,SW,222,2.0,7.0,63,0.00,,,0.00,,2013-01-27 14:32:00,
2013-01-27 09:43:00,11.0,1.0,30.40,SW,222,2.0,7.0,63,0.00,,,0.00,,2013-01-27 14:43:00,
2013-01-27 09:53:00,12.0,-1.0,30.40,WSW,249,1.0,7.0,55,0.00,,,0.00,,2013-01-27 14:53:00,
2013-01-27 10:02:00,13.0,-1.0,30.40,SW,232,2.0,9.0,52,0.00,,,0.00,,2013-01-27 15:02:00,
2013-01-27 10:12:00,13.0,-1.0,30.40,SW,232,2.0,9.0,52,0.00,,,0.00,,2013-01-27 15:12:00,
2013-01-27 10:22:00,14.0,-2.0,30.40,SW,226,4.0,13.0,49,0.00,,,0.00,,2013-01-27 15:22:00,
2013-01-27 10:32:00,14.0,-2.0,30.41,WSW,252,5.0,11.0,49,0.00,,,0.00,,2013-01-27 15:32:00,
2013-01-27 10:42:00,14.0,-2.0,30.41,WSW,252,5.0,11.0,49,0.00,,,0.00,,2013-01-27 15:42:00,
2013-01-27 10:53:00,14.0,-2.0,30.41,West,273,5.0,11.0,48,0.00,,,0.00,,2013-01-27 15:53:00,
2013-01-27 11:02:00,14.0,-2.0,30.41,NW,323,6.0,11.0,47,0.00,,,0.00,,2013-01-27 16:02:00,
2013-01-27 11:12:00,14.0,-2.0,30.41,NW,323,6.0,11.0,47,0.00,,,0.00,,2013-01-27 16:12:00,
2013-01-27 11:22:00,15.0,-2.0,30.41,NW,311,1.0,10.0,46,0.00,,,0.00,,2013-01-27 16:22:00,
2013-01-27 11:32:00,15.0,-2.0,30.41,SW,230,3.0,9.0,45,0.00,,,0.00,,2013-01-27 16:32:00,
2013-01-27 11:42:00,15.0,-2.0,30.41,SW,230,3.0,9.0,45,0.00,,,0.00,,2013-01-27 16:42:00,
2013-01-27 11:53:00,17.0,-2.0,30.41,SSW,198,5.0,7.0,42,0.00,,,0.00,,2013-01-27 16:53:00,
2013-01-27 12:02:00,18.0,-2.0,30.41,NW,304,3.0,11.0,40,0.00,,,0.00,,2013-01-27 17:02:00,
2013-01-27 12:12:00,18.0,-2.0,30.41,NW,304,3.0,11.0,40,0.00,,,0.00,,2013-01-27 17:12:00,
2013-01-27 12:22:00,18.0,-3.0,30.41,NNW,342,3.0,14.0,38,0.00,,,0.00,,2013-01-27 17:22:00,
2013-01-27 12:32:00,17.0,-3.0,30.41,West,272,4.0,13.0,40,0.00,,,0.00,,2013-01-27 17:32:00,
2013-01-27 12:42:00,17.0,-3.0,30.41,West,272,4.0,13.0,40,0.00,,,0.00,,2013-01-27 17:42:00,
2013-01-27 12:53:00,18.0,-3.0,30.42,North,360,9.0,15.0,39,0.00,,,0.00,,2013-01-27 17:53:00,
2013-01-27 13:02:00,17.0,-4.0,30.41,WSW,256,2.0,13.0,38,0.00,,,0.00,,2013-01-27 18:02:00,
2013-01-27 13:12:00,17.0,-4.0,30.41,WSW,256,2.0,13.0,38,0.00,,,0.00,,2013-01-27 18:12:00,
2013-01-27 13:22:00,18.0,-4.0,30.41,NW,322,6.0,11.0,37,0.00,,,0.00,,2013-01-27 18:22:00,
2013-01-27 13:32:00,18.0,-5.0,30.40,WNW,299,3.0,8.0,35,0.00,,,0.00,,2013-01-27 18:32:00,
2013-01-27 13:42:00,18.0,-5.0,30.40,WNW,299,3.0,8.0,35,0.00,,,0.00,,2013-01-27 18:42:00,
2013-01-27 13:53:00,19.0,-5.0,30.41,North,360,3.0,13.0,34,0.00,,,0.00,,2013-01-27 18:53:00,
2013-01-27 14:02:00,19.0,-4.0,30.40,NNW,340,0.0,9.0,35,0.00,,,0.00,,2013-01-27 19:02:00,
2013-01-27 14:12:00,19.0,-4.0,30.40,NNW,340,0.0,9.0,35,0.00,,,0.00,,2013-01-27 19:12:00,
2013-01-27 14:22:00,20.0,-4.0,30.40,North,349,1.0,9.0,34,0.00,,,0.00,,2013-01-27 19:22:00,
2013-01-27 14:32:00,20.0,-4.0,30.40,NW,318,4.0,9.0,34,0.00,,,0.00,,2013-01-27 19:32:00,
2013-01-27 14:42:00,20.0,-4.0,30.40,NW,318,4.0,9.0,34,0.00,,,0.00,,2013-01-27 19:42:00,
2013-01-27 14:52:00,19.0,-5.0,30.40,ENE,69,1.0,10.0,34,0.00,,,0.00,,2013-01-27 19:52:00,
2013-01-27 15:02:00,20.0,-4.0,30.40,NNW,328,5.0,9.0,34,0.00,,,0.00,,2013-01-27 20:02:00,
2013-01-27 15:12:00,20.0,-4.0,30.40,NNW,328,5.0,9.0,34,0.00,,,0.00,,2013-01-27 20:12:00,
2013-01-27 15:22:00,20.0,-4.0,30.41,NNE,21,2.0,10.0,34,0.00,,,0.00,,2013-01-27 20:22:00,
2013-01-27 15:33:00,20.0,-4.0,30.41,NW,307,7.0,9.0,34,0.00,,,0.00,,2013-01-27 20:33:00,
2013-01-27 15:42:00,20.0,-4.0,30.41,NW,307,7.0,9.0,34,0.00,,,0.00,,2013-01-27 20:42:00,
2013-01-27 15:52:00,19.0,-4.0,30.41,NW,318,4.0,8.0,35,0.00,,,0.00,,2013-01-27 20:52:00,
2013-01-27 16:02:00,19.0,-3.0,30.41,NW,323,4.0,7.0,37,0.00,,,0.00,,2013-01-27 21:02:00,
2013-01-27 16:12:00,19.0,-3.0,30.41,NW,323,4.0,7.0,37,0.00,,,0.00,,2013-01-27 21:12:00,
2013-01-27 16:22:00,18.0,-3.0,30.42,North,355,4.0,9.0,38,0.00,,,0.00,,2013-01-27 21:22:00,
2013-01-27 16:33:00,17.0,-3.0,30.42,NNW,347,1.0,7.0,40,0.00,,,0.00,,2013-01-27 21:33:00,
2013-01-27 16:42:00,17.0,-3.0,30.42,NNW,347,1.0,7.0,40,0.00,,,0.00,,2013-01-27 21:42:00,
2013-01-27 16:52:00,16.0,-3.0,30.42,NNW,331,0.0,5.0,42,0.00,,,0.00,,2013-01-27 21:52:00,
2013-01-27 17:02:00,16.0,-2.0,30.42,NE,34,0.0,2.0,45,0.00,,,0.00,,2013-01-27 22:02:00,
2013-01-27 17:12:00,16.0,-2.0,30.42,NE,34,0.0,2.0,45,0.00,,,0.00,,2013-01-27 22:12:00,
2013-01-27 17:22:00,15.0,-2.0,30.42,NE,34,0.0,2.0,46,0.00,,,0.00,,2013-01-27 22:22:00,
2013-01-27 17:32:00,13.0,0.0,30.43,NE,34,0.0,2.0,54,0.00,,,0.00,,2013-01-27 22:32:00,
2013-01-27 17:42:00,13.0,0.0,30.43,NE,34,0.0,2.0,54,0.00,,,0.00,,2013-01-27 22:42:00,
2013-01-27 17:52:00,12.0,-1.0,30.43,NNE,33,0.0,1.0,55,0.00,,,0.00,,2013-01-27 22:52:00,
2013-01-27 18:02:00,10.0,-2.0,30.44,NNE,33,0.0,2.0,58,0.00,,,0.00,,2013-01-27 23:02:00,
2013-01-27 18:12:00,10.0,-2.0,30.44,NNE,33,0.0,2.0,58,0.00,,,0.00,,2013-01-27 23:12:00,
2013-01-27 18:22:00,9.0,-2.0,30.44,NNE,33,0.0,1.0,60,0.00,,,0.00,,2013-01-27 23:22:00,
2013-01-27 18:32:00,8.0,-2.0,30.45,NNE,33,2.0,2.0,62,0.00,,,0.00,,2013-01-27 23:32:00,
2013-01-27 18:42:00,8.0,-2.0,30.45,NNE,33,2.0,2.0,62,0.00,,,0.00,,2013-01-27 23:42:00,
2013-01-27 18:53:00,7.0,-3.0,30.45,NNE,33,0.0,2.0,63,0.00,,,0.00,,2013-01-27 23:53:00,
2013-01-27 19:02:00,6.0,-3.0,30.45,NW,323,0.0,2.0,65,0.00,,,0.00,,2013-01-28 00:02:00,
2013-01-27 19:12:00,6.0,-3.0,30.45,NW,323,0.0,2.0,65,0.00,,,0.00,,2013-01-28 00:12:00,
2013-01-27 19:21:00,6.0,-3.0,30.45,NW,323,0.0,2.0,66,0.00,,,0.00,,2013-01-28 00:21:00,
2013-01-27 19:32:00,5.0,-4.0,30.44,NW,323,0.0,0.0,67,0.00,,,0.00,,2013-01-28 00:32:00,
2013-01-27 19:42:00,5.0,-4.0,30.44,NW,323,0.0,0.0,67,0.00,,,0.00,,2013-01-28 00:42:00,
2013-01-27 19:52:00,4.0,-4.0,30.45,NW,323,0.0,2.0,69,0.00,,,0.00,,2013-01-28 00:52:00,
2013-01-27 20:02:00,4.0,-4.0,30.45,NW,323,0.0,2.0,70,0.00,,,0.00,,2013-01-28 01:02:00,
2013-01-27 20:11:00,4.0,-4.0,30.45,NW,323,0.0,2.0,70,0.00,,,0.00,,2013-01-28 01:11:00,
2013-01-27 20:22:00,4.0,-3.0,30.44,NW,323,0.0,2.0,71,0.00,,,0.00,,2013-01-28 01:22:00,
2013-01-27 20:33:00,3.0,-4.0,30.43,NNE,13,0.0,1.0,72,0.00,,,0.00,,2013-01-28 01:33:00,
2013-01-27 20:42:00,3.0,-4.0,30.43,NNE,13,0.0,1.0,72,0.00,,,0.00,,2013-01-28 01:42:00,
2013-01-27 20:52:00,3.0,-4.0,30.42,NNE,13,0.0,2.0,72,0.00,,,0.00,,2013-01-28 01:52:00,
2013-01-27 21:02:00,3.0,-4.0,30.43,NNE,13,0.0,2.0,73,0.00,,,0.00,,2013-01-28 02:02:00,
2013-01-27 21:11:00,3.0,-4.0,30.43,NNE,13,0.0,2.0,73,0.00,,,0.00,,2013-01-28 02:11:00,
2013-01-27 21:22:00,3.0,-4.0,30.42,NNE,13,0.0,0.0,73,0.00,,,0.00,,2013-01-28 02:22:00,
2013-01-27 21:32:00,2.0,-4.0,30.42,NNE,13,0.0,0.0,74,0.00,,,0.00,,2013-01-28 02:32:00,
2013-01-27 21:42:00,2.0,-4.0,30.42,NNE,13,0.0,0.0,74,0.00,,,0.00,,2013-01-28 02:42:00,
2013-01-27 21:53:00,2.0,-4.0,30.42,NNE,13,0.0,0.0,74,0.00,,,0.00,,2013-01-28 02:53:00,
2013-01-27 22:02:00,2.0,-4.0,30.42,NNE,13,0.0,0.0,75,0.00,,,0.00,,2013-01-28 03:02:00,
2013-01-27 22:12:00,2.0,-4.0,30.42,NNE,13,0.0,0.0,75,0.00,,,0.00,,2013-01-28 03:12:00,
2013-01-27 22:22:00,2.0,-4.0,30.43,NNE,13,0.0,2.0,76,0.00,,,0.00,,2013-01-28 03:22:00,
2013-01-27 22:32:00,2.0,-4.0,30.43,NNE,13,1.0,2.0,76,0.00,,,0.00,,2013-01-28 03:32:00,
2013-01-27 22:42:00,2.0,-4.0,30.43,NNE,13,1.0,2.0,76,0.00,,,0.00,,2013-01-28 03:42:00,
2013-01-27 22:53:00,1.0,-4.0,30.43,NNE,13,0.0,2.0,77,0.00,,,0.00,,2013-01-28 03:53:00,
2013-01-27 23:02:00,1.0,-4.0,30.43,NNE,13,0.0,1.0,77,0.00,,,0.00,,2013-01-28 04:02:00,
2013-01-27 23:12:00,1.0,-4.0,30.43,NNE,13,0.0,1.0,77,0.00,,,0.00,,2013-01-28 04:12:00,
2013-01-27 23:22:00,1.0,-4.0,30.44,NNE,13,0.0,0.0,77,0.00,,,0.00,,2013-01-28 04:22:00,
2013-01-27 23:32:00,1.0,-4.0,30.43,NNE,13,0.0,0.0,78,0.00,,,0.00,,2013-01-28 04:32:00,
2013-01-27 23:42:00,1.0,-4.0,30.43,NNE,13,0.0,0.0,78,0.00,,,0.00,,2013-01-28 04:42:00,
2013-01-27 23:52:00,1.0,-4.0,30.43,NNE,13,0.0,2.0,79,0.00,,,0.00,,2013-01-28 04:52:00,